This is the latest recevied weather packets stored in our database for station/object S56OA-13. If no packets are shown the sender has not sent any weather packets the latest 10 day(s).
| Time | Temp. | Humidity | Pressure | Rain* | Wind** | Luminosity | Snow |
|---|---|---|---|---|---|---|---|
| 1788315670 | 17.22° C | 42% | 868.3 hPa | - | - | - | - |
| 1788313841 | 17.22° C | 42% | 868.1 hPa | - | - | - | - |
| 1788312039 | 17.22° C | 42% | 867.2 hPa | - | - | - | - |
| 1788310238 | 17.22° C | 42% | 868 hPa | - | - | - | - |
| 1788308436 | 17.22° C | 42% | 867.3 hPa | - | - | - | - |
| 1788306635 | 17.22° C | 42% | 867.2 hPa | - | - | - | - |
| 1788304822 | 16.67° C | 42% | 867.3 hPa | - | - | - | - |
| 1788303021 | 17.22° C | 43% | 867.9 hPa | - | - | - | - |
| 1788301220 | 17.22° C | 42% | 868.5 hPa | - | - | - | - |
| 1788299419 | 17.22° C | 43% | 868.7 hPa | - | - | - | - |
| 1788297617 | 17.22° C | 42% | 868.6 hPa | - | - | - | - |
| 1788295816 | 17.22° C | 43% | 869.1 hPa | - | - | - | - |
| 1788294014 | 17.78° C | 43% | 869.5 hPa | - | - | - | - |
| 1788292213 | 17.78° C | 43% | 870.1 hPa | - | - | - | - |
| 1788290412 | 17.78° C | 43% | 871.1 hPa | - | - | - | - |
| 1788288610 | 18.89° C | 43% | 872.8 hPa | - | - | - | - |
| 1788286809 | 19.44° C | 44% | 875 hPa | - | - | - | - |
| 1788285008 | 21.11° C | 45% | 882.2 hPa | - | - | - | - |
| 1788283207 | 26.67° C | 44% | 902.6 hPa | - | - | - | - |
| 1788281405 | 30.56° C | 43% | 917.6 hPa | - | - | - | - |
| 1788279604 | 33.89° C | 42% | 932.1 hPa | - | - | - | - |
| 1788277803 | 33.89° C | 42% | 933 hPa | - | - | - | - |
| 1788276001 | 35.56° C | 42% | 937.5 hPa | - | - | - | - |
| 1788274200 | 35° C | 42% | 936.5 hPa | - | - | - | - |
| 1788272399 | 32.78° C | 44% | 929.6 hPa | - | - | - | - |
* Rain since midnight (hover to see other rain measurements)
** Current wind speed in m/s (hover to see current wind gust speed)